Regional Weather Roundup
Issued by NWS

Home | Current Version | Previous Version | Text Only | Print | Product List | Glossary On
Versions: 1 2 3 4 5 6 7 8 9 10 11 12 13 14 15 16 17 18 19 20 21 22 23 24 25 26 27 28 29 30 31 32 33 34 35 36 37 38 39 40 41 42 43 44 45 46 47 48 49
000
ASUS46 KPQR 202210
RWROR

OREGON REGIONAL WEATHER ROUNDUP
NATIONAL WEATHER SERVICE PORTLAND OR
300 PM PDT SAT SEP 20 2014

NOTE: "FAIR" INDICATES FEW OR NO CLOUDS BELOW 12,000 FEET WITH
NO SIGNIFICANT WEATHER AND/OR OBSTRUCTIONS TO VISIBILITY.

ORZ001>013-202300-
NORTHWEST OREGON


CITY           SKY/WX    TMP DP  RH WIND       PRES   REMARKS
ASTORIA        SUNNY     84  60  44 NE15      29.85F
NEWPORT        SUNNY     72  57  60 N7        29.86F
PORTLAND       MOSUNNY   93  52  24 E17       29.85F HX  90
VANCOUVER WA   SUNNY     93  49  22 E9        29.85F HX  90
SCAPPOOSE      SUNNY     91  53  27 VRB7      29.86F
HILLSBORO      SUNNY     91  53  27 E10G20    29.86F
AURORA         SUNNY     93  53  25 N15       29.84F HX  90
MCMINNVILLE    SUNNY     92  55  28 N9        29.85F HX  90
SALEM          SUNNY     89  56  32 NW8       29.84F
CORVALLIS      SUNNY     88  57  35 NE9       29.86F
EUGENE         SUNNY     86  56  35 N10       29.85F
$$

ORZ021-028-202300-
SOUTHWEST OREGON


CITY           SKY/WX    TMP DP  RH WIND       PRES   REMARKS
NORTH BEND     SUNNY     66  57  72 W14       29.88F
BROOKINGS      FOG       61  59  94 SE6       29.93S VSB 1/2
ROSEBURG       SUNNY     92  52  25 NE3       29.82F
SEXTON SUMMIT  SUNNY     85  46  25 VRB3      30.02F
MEDFORD        SUNNY     94  48  20 VRB5      29.83F HX  90
$$

ORZ009-041-202300-
COLUMBIA GORGE


CITY           SKY/WX    TMP DP  RH WIND       PRES   REMARKS
TROUTDALE      SUNNY     91  51  25 E18G25    29.84F
THE DALLES     SUNNY     91  47  21 E14       29.95F
$$

ORZ029>031-042>050-061>064-202300-
EASTERN OREGON


CITY           SKY/WX    TMP DP  RH WIND       PRES   REMARKS
REDMOND        SUNNY     83  46  27 NW12      30.03F
BEND           CLEAR     81  45  28 N10       30.06F
KLAMATH FALLS  SUNNY     86  41  20 NW6       30.03F
LAKEVIEW       SUNNY     90  37  15 W6        30.09F
HERMISTON      SUNNY     89  49  25 NE12      29.99F
PENDLETON      SUNNY     85  44  23 NE9G17    30.02F
JOHN DAY       CLEAR     86  43  21 SE5       30.07F
MEACHAM        SUNNY     78  44  29 VRB5      30.13F
LA GRANDE      SUNNY     81  43  26 CALM      30.07F
BAKER CITY     SUNNY     81  42  25 CALM      30.10F
BURNS          SUNNY     85  40  20 NE8       30.09F
ROME             N/A     86  37  17 VRB7      30.07F
ONTARIO        SUNNY     86  47  25 NE5       30.04F
$$



USA.gov is the U.S. government's official web portal to all federal, state and local government web resources and services.